Flag for Poland Weather past 2 weeks in Rzeszów, Poland

Now
37 °F

Fog.


Feels Like: 35 °F
Forecast: 38 / 47 °F
Wind: 3 mph from West

Location: Rzeszow-Jasionka

Current Time: Mar 1, 2015 at 5:30:05 AM

Latest Report: Mar 1, 2015 at 5:00 AM


Visibility: 2 mi

Pressure: 30.01 "Hg

Humidity: 100%

Dew point: 37 °F

Location of RzeszówLocation

Historic Weather in Rzeszów — Graph

°F

Rzeszów temperature yesterday

Maximum temperature yesterday: 50 °F (at 12:30 PM)
Minimum temperature yesterday: 36 °F (at 3:00 AM)
Average temperature yesterday: 43 °F

Past Weeks' High & Low Weather Summary

 TemperatureHumidityPressure
High54 °F (Feb 22, 1:30 PM)100% (Feb 15, 2:00 AM)30.69 "Hg (Feb 15, 2:00 AM)
Low14 °F (Feb 18, 5:30 AM)32% (Feb 14, 1:00 PM)29.62 "Hg (Feb 23, 5:00 PM)
Average38 °F77%30.09 "Hg
* Reported Feb 14 4:00 AM — Mar 1 4:00 AM, Rzeszów, Weather by CustomWeather, © 2015

Note: Actual official high and low records may vary slightly from our data, if they occured in-between our weather recording intervals... More about our weather records

Advertising

Rzeszów weather history for previous 24 hours

 ConditionsComfort  
Time TempWeatherWind HumidityBarometerVisibility
4:00 AM
Sun, Mar 1
37 °FFog.2 mph100%30.01 "Hg2 mi
3:30 AM39 °FFog.3 mph93%30.04 "Hg3 mi
3:00 AM39 °FFog.5 mph93%30.04 "Hg3 mi
2:30 AM39 °FClear.3 mph93%30.04 "Hg4 mi
2:00 AM39 °FClear.2 mph93%30.04 "Hg4 mi
1:30 AM39 °FClear.3 mph93%30.04 "Hg4 mi
1:00 AM39 °FClear.3 mph93%30.07 "Hg4 mi
12:30 AM39 °FPassing clouds.1 mph93%30.07 "Hg4 mi
12:00 AM39 °FPassing clouds.5 mph93%30.07 "Hg4 mi
11:30 PM
Sat, Feb 28
41 °FClear.2 mph87%30.07 "Hg10 mi
11:00 PM41 °FPassing clouds.5 mph87%30.07 "HgN/A
10:00 PM41 °FOvercast.3 mph87%30.07 "HgN/A
9:30 PM41 °FOvercast.3 mph87%30.07 "HgN/A
9:00 PM41 °FPassing clouds.5 mph87%30.09 "HgN/A
8:30 PM45 °FPassing clouds.2 mph76%30.09 "HgN/A
8:00 PM45 °FPassing clouds.5 mph76%30.07 "HgN/A
7:30 PM45 °FPassing clouds.6 mph76%30.07 "HgN/A
7:00 PM45 °FPassing clouds.5 mph76%30.07 "HgN/A
6:30 PM45 °FPassing clouds.5 mph76%30.07 "HgN/A
6:00 PM46 °FClear.5 mph71%30.07 "Hg10 mi
5:30 PM46 °FClear.5 mph71%30.07 "Hg10 mi
5:00 PM46 °FSunny.2 mph66%30.07 "Hg10 mi
4:30 PM46 °FSunny.2 mph71%30.04 "Hg10 mi
4:00 PM48 °FPassing clouds.3 mph66%30.04 "HgN/A
3:30 PM48 °FPartly sunny.5 mph66%30.04 "HgN/A
3:00 PM48 °FPartly sunny.7 mph62%30.04 "HgN/A
2:30 PM50 °FScattered clouds.3 mph62%30.04 "HgN/A
2:00 PM48 °FScattered clouds.5 mph66%30.04 "HgN/A
1:30 PM50 °FPartly sunny.5 mph58%30.04 "HgN/A
1:00 PM50 °FPartly sunny.6 mph58%30.04 "HgN/A
12:30 PM50 °FPartly sunny.5 mph58%30.04 "HgN/A
12:00 PM48 °FPartly sunny.5 mph66%30.04 "HgN/A
11:30 AM48 °FPartly sunny.2 mph66%30.04 "HgN/A
11:00 AM48 °FScattered clouds.2 mph71%30.04 "HgN/A
10:30 AM48 °FScattered clouds.2 mph76%30.04 "Hg5 mi
10:00 AM45 °FScattered clouds.3 mph87%30.04 "Hg4 mi
9:30 AM43 °FFog.5 mph87%30.04 "Hg3 mi
9:00 AM41 °FFog.6 mph93%30.04 "Hg3 mi
8:30 AM41 °FFog.5 mph93%30.04 "Hg2 mi
8:00 AM39 °FFog.5 mph93%30.04 "Hg2 mi
7:30 AM39 °FFog.5 mph93%30.04 "Hg2 mi
7:00 AM37 °FFog.5 mph100%30.04 "Hg2 mi
6:30 AM37 °FFog.3 mph93%30.01 "Hg2 mi
6:00 AM37 °FOvercast.3 mph93%30.01 "Hg4 mi
5:30 AM37 °FOvercast.5 mph93%30.01 "HgN/A
5:00 AM37 °FOvercast.6 mph93%30.01 "HgN/A
Weather by CustomWeather, © 2015

See weather overviewHow to use our weather pages